JBU936 TJSJ-TIST

Flight info

Callsign JBU936
Flight time 0h 16m
Altitude 9000
Route SJU RTE2 STT
Aircraft A320/M-SDE3FGHIRWY/LB1

Departure

Time 2026-05-07 13:21
Airport Luis Munoz Marin International Airport (TJSJ)

Arrival

Time 2026-05-07 13:37
Airport Cyril E. King Airport (TIST)
Time Latitude Longitude Altitude Speed Heading
2026-05-07 12:50 18.43583 -66.00365 -49 ft 0 kts 332°
2026-05-07 13:12 18.43564 -66.00354 -34 ft 4 kts 332°
2026-05-07 13:12 18.43540 -66.00341 -27 ft 4 kts 332°
2026-05-07 13:12 18.43516 -66.00328 -32 ft 4 kts 332°
2026-05-07 13:12 18.43503 -66.00321 -44 ft 1 kts 332°
2026-05-07 13:16 18.43500 -66.00331 -31 ft 4 kts 239°
2026-05-07 13:16 18.43472 -66.00385 -29 ft 13 kts 251°
2026-05-07 13:16 18.43466 -66.00441 -29 ft 5 kts 271°
2026-05-07 13:17 18.43467 -66.00481 -28 ft 6 kts 271°
2026-05-07 13:17 18.43468 -66.00556 -28 ft 15 kts 270°
2026-05-07 13:17 18.43468 -66.00673 -28 ft 17 kts 270°
2026-05-07 13:17 18.43468 -66.00800 -28 ft 14 kts 270°
2026-05-07 13:18 18.43468 -66.00914 -28 ft 17 kts 270°
2026-05-07 13:18 18.43466 -66.01050 -29 ft 20 kts 269°
2026-05-07 13:18 18.43467 -66.01207 -31 ft 17 kts 270°
2026-05-07 13:18 18.43466 -66.01293 -31 ft 12 kts 270°
2026-05-07 13:19 18.43466 -66.01381 -30 ft 6 kts 270°
2026-05-07 13:19 18.43497 -66.01431 -35 ft 12 kts 343°
2026-05-07 13:19 18.43593 -66.01436 -35 ft 15 kts 358°
2026-05-07 13:19 18.43705 -66.01435 -38 ft 19 kts
2026-05-07 13:20 18.43764 -66.01459 -49 ft 2 kts 287°
2026-05-07 13:20 18.43761 -66.01514 -39 ft 13 kts 283°
2026-05-07 13:20 18.43837 -66.01557 -43 ft 14 kts 25°
2026-05-07 13:20 18.43929 -66.01360 -50 ft 69 kts 68°
2026-05-07 13:21 18.44227 -66.00617 -48 ft 147 kts 67°
2026-05-07 13:21 18.44654 -65.99554 545 ft 161 kts 61°
2026-05-07 13:21 18.45406 -65.98617 1380 ft 177 kts 49°
2026-05-07 13:21 18.46345 -65.97650 1985 ft 199 kts 47°
2026-05-07 13:22 18.47374 -65.96612 2294 ft 224 kts 46°
2026-05-07 13:22 18.48556 -65.95406 2722 ft 248 kts 46°
2026-05-07 13:22 18.49835 -65.94099 3399 ft 262 kts 46°
2026-05-07 13:22 18.51155 -65.92750 4294 ft 266 kts 45°
2026-05-07 13:23 18.52488 -65.91397 5237 ft 268 kts 45°
2026-05-07 13:23 18.53836 -65.90016 6098 ft 273 kts 46°
2026-05-07 13:23 18.55202 -65.88608 6922 ft 277 kts 46°
2026-05-07 13:23 18.56513 -65.87107 7738 ft 280 kts 57°
2026-05-07 13:24 18.57259 -65.85213 8504 ft 284 kts 80°
2026-05-07 13:24 18.57222 -65.83122 8881 ft 288 kts 102°
2026-05-07 13:24 18.56727 -65.81069 8984 ft 289 kts 104°
2026-05-07 13:24 18.56204 -65.79023 9001 ft 289 kts 105°
2026-05-07 13:25 18.55678 -65.76979 9005 ft 289 kts 104°
2026-05-07 13:25 18.55154 -65.74933 9004 ft 289 kts 104°
2026-05-07 13:25 18.54643 -65.72918 9003 ft 288 kts 104°
2026-05-07 13:25 18.53976 -65.70926 9003 ft 289 kts 111°
2026-05-07 13:26 18.53215 -65.68959 9005 ft 289 kts 112°
2026-05-07 13:26 18.52435 -65.67003 9004 ft 290 kts 112°
2026-05-07 13:26 18.51650 -65.65052 9004 ft 289 kts 112°
2026-05-07 13:26 18.50864 -65.63098 9007 ft 290 kts 112°
2026-05-07 13:27 18.50078 -65.61141 9007 ft 290 kts 112°
2026-05-07 13:27 18.49291 -65.59185 9007 ft 290 kts 112°
2026-05-07 13:27 18.48505 -65.57226 9009 ft 291 kts 112°
2026-05-07 13:27 18.47721 -65.55263 9010 ft 291 kts 112°
2026-05-07 13:28 18.46939 -65.53297 9018 ft 291 kts 112°
2026-05-07 13:28 18.46154 -65.51330 8943 ft 291 kts 112°
2026-05-07 13:28 18.45367 -65.49360 8564 ft 291 kts 112°
2026-05-07 13:28 18.44585 -65.47400 8208 ft 289 kts 112°
2026-05-07 13:29 18.43814 -65.45462 7924 ft 285 kts 112°
2026-05-07 13:29 18.43047 -65.43534 7562 ft 285 kts 112°
2026-05-07 13:29 18.42283 -65.41618 7261 ft 282 kts 112°
2026-05-07 13:29 18.41525 -65.39717 6951 ft 280 kts 112°
2026-05-07 13:30 18.40793 -65.37884 6655 ft 271 kts 112°
2026-05-07 13:30 18.40065 -65.36064 6345 ft 270 kts 112°
2026-05-07 13:30 18.39333 -65.34244 6019 ft 268 kts 112°
2026-05-07 13:30 18.38604 -65.32436 5707 ft 269 kts 112°
2026-05-07 13:31 18.37878 -65.30629 5388 ft 267 kts 112°
2026-05-07 13:31 18.37157 -65.28833 5079 ft 266 kts 112°
2026-05-07 13:31 18.36444 -65.27042 4759 ft 264 kts 111°
2026-05-07 13:31 18.35740 -65.25267 4442 ft 262 kts 112°
2026-05-07 13:32 18.35038 -65.23508 4116 ft 257 kts 112°
2026-05-07 13:32 18.34360 -65.21816 3796 ft 245 kts 112°
2026-05-07 13:32 18.33710 -65.20202 3488 ft 234 kts 112°
2026-05-07 13:32 18.33088 -65.18655 3171 ft 224 kts 111°
2026-05-07 13:33 18.32705 -65.17143 2864 ft 212 kts 90°
2026-05-07 13:33 18.32831 -65.15663 2786 ft 196 kts 85°
2026-05-07 13:33 18.32928 -65.14291 2823 ft 184 kts 86°
2026-05-07 13:33 18.33026 -65.12957 2701 ft 183 kts 86°
2026-05-07 13:34 18.33104 -65.11637 2446 ft 179 kts 88°
2026-05-07 13:34 18.33224 -65.09060 1985 ft 171 kts 88°
2026-05-07 13:34 18.33277 -65.07848 1758 ft 160 kts 88°
2026-05-07 13:35 18.33327 -65.06710 1564 ft 151 kts 87°
2026-05-07 13:35 18.33373 -65.05650 1381 ft 140 kts 89°
2026-05-07 13:35 18.33416 -65.04648 1196 ft 137 kts 89°
2026-05-07 13:35 18.33458 -65.03662 1019 ft 134 kts 88°
2026-05-07 13:36 18.33500 -65.02703 860 ft 132 kts 89°
2026-05-07 13:36 18.33541 -65.01729 705 ft 133 kts 89°
2026-05-07 13:36 18.33583 -65.00753 521 ft 137 kts 89°
2026-05-07 13:36 18.33626 -64.99765 334 ft 132 kts 88°
2026-05-07 13:37 18.33667 -64.98785 179 ft 135 kts 89°
2026-05-07 13:37 18.33708 -64.97818 35 ft 122 kts 88°
2026-05-07 13:37 18.33734 -64.97210 37 ft 40 kts 86°
2026-05-07 13:37 18.33714 -64.97120 34 ft 12 kts 151°
2026-05-07 13:38 18.33667 -64.97126 32 ft 2 kts 220°
2026-05-07 13:38 18.33656 -64.97162 30 ft 8 kts 263°
2026-05-07 13:38 18.33653 -64.97226 32 ft 10 kts 268°
2026-05-07 13:38 18.33650 -64.97301 32 ft 10 kts 263°
2026-05-07 13:39 18.33640 -64.97361 32 ft 7 kts 257°
2026-05-07 13:39 18.33615 -64.97400 32 ft 5 kts 185°
2026-05-07 13:39 18.33593 -64.97374 31 ft 3 kts 115°
2026-05-07 13:39 18.33583 -64.97353 32 ft 4 kts 118°
2026-05-07 13:40 18.33574 -64.97337 32 ft 1 kts 119°
2026-05-07 13:40 18.33573 -64.97334 32 ft 0 kts 119°